Regional Weather Roundup
Issued by NWS Albany, NY

Home | Current Version | Previous Version | Text Only | Print | Product List | Glossary On
Versions: 1 2 3 4 5 6 7 8 9 10 11 12 13 14 15 16 17 18 19 20 21 22 23 24 25 26 27 28 29 30 31 32 33 34 35 36 37 38 39 40 41 42 43 44 45 46 47 48 49 50
000
ASUS41 KALY 261510
RWRALY

NEW YORK STATE HOURLY WEATHER ROUNDUP
NATIONAL WEATHER SERVICE ALBANY NY
1100 AM EDT SUN APR 26 2015

NOTE: "FAIR" INDICATES FEW OR NO CLOUDS BELOW 12,000 FEET WITH NO
SIGNIFICANT WEATHER AND/OR NO OBSTRUCTIONS TO VISIBILITY.

NYZ032-033-038>043-046>054-057>066-NYZ062>081-261600-
EAST


CITY           SKY/WX    TMP DP  RH WIND       PRES   REMARKS
ALBANY         CLOUDY    52  30  43 CALM      29.72F
GLENS FALLS    CLOUDY    52  31  44 VRB5      29.70F
POUGHKEEPSIE   PTSUNNY   56  33  42 N8        29.70F
NEWBURGH       SUNNY     52  34  50 CALM      29.72S
MONTGOMERY     CLOUDY    55  32  41 VRB3      29.70F
WHITE PLAINS   MOSUNNY   55  29  36 NW7       29.69F
ISLIP          MOSUNNY   56  29  35 VRB7      29.68S
NEW YORK CITY  MOSUNNY   53  30  41 NE9       29.71S
CENTRAL PARK   SUNNY     56  27  32 E7        29.73S
$$

NYZ005>009-017-018-044>046-055-056-261600-
CENTRAL


CITY           SKY/WX    TMP DP  RH WIND       PRES   REMARKS
FULTON         SUNNY     48  33  56 NW8       29.79F
SYRACUSE       MOSUNNY   51  33  50 W12       29.77F
ROME           SUNNY     49  33  54 SW7       29.76F
ELMIRA         CLOUDY    49  31  49 W3        29.77F
BINGHAMTON     CLOUDY    48  29  47 VRB6      29.72F
MONTICELLO     CLOUDY    48  27  43 NW9       29.71F
$$

NYZ026>034-041>043-261600-
NORTH


CITY           SKY/WX    TMP DP  RH WIND       PRES   REMARKS
WATERTOWN      MOSUNNY   49  32  52 N5        29.78F
FORT DRUM      NOT AVBL
MASSENA        CLOUDY    47  33  58 NW8       29.78S
SARANAC LAKE   CLOUDY    43  29  57 W7        29.68S
PLATTSBURGH    CLOUDY    46  33  60 NE9       29.72F
$$

NYZ001>004-010>016-019>021-261600-
WEST


CITY           SKY/WX    TMP DP  RH WIND       PRES   REMARKS
NIAGARA FALLS  PTSUNNY   45  33  63 NW9       29.84S
BUFFALO        PTSUNNY   47  32  56 N8        29.84S
DUNKIRK        CLOUDY    43  31  62 CALM      29.85S
JAMESTOWN      MOSUNNY   45  27  49 N9        29.81S
WELLSVILLE     CLOUDY    43  27  53 N6        29.78S
ROCHESTER      CLOUDY    46  32  58 N8        29.83S
PENN YAN       CLOUDY    45  33  63 NW7       29.79F
$$

             KEY
       WCI = WIND CHILL INDEX
       VSB = VISIBILITY
       HX  = HEAT INDEX
$$


USA.gov is the U.S. government's official web portal to all federal, state and local government web resources and services.